www.pogodaiklimat.ru

Погода и климат >> Архив погоды >> Филиппины >> Манила


АРХИВ ПОГОДЫ в Маниле

Время (UTC), дата Ветер
(напр.,м/с)
 
Видим.   Явления Облачность Т
(С)
Тd
(С)
f
(%)
Тe
(С)
Тes
(С)
Комфортность P
(гПа)
Po
(гПа)
Тmin
(С)
Tmax
(С)
R
(мм)
R24
(мм)
S
(см)
09 14.07 Ю 6 8000 м слаб. ливневой дождь {туман} 9/5 540 м
[Sc Ac As]
+29.4 +25.6 80 +43 +44 опасность
перегрева
1005.9 1004.2 0.1
12 14.07 СВ 2 8000 м в посл. час гроза {дождь} 9/3 540 м
[Cb cap Ac As Ci]
+25.8 +23.6 88 +35 +35 очень
душно
1007.7 1006.0 +32.9 8
15 14.07 В 2 10 км мгла {туман} 9/3 600 м
[Sc Ci]
+26.8 +22.7 78 +35 +35 очень
душно
1007.9 1006.2
18 14.07 С 1 10 км мгла {туман} 6/1 600 м
[Cu hum Cs]
+26.0 +23.8 88 +36 +36 очень
душно
1006.8 1005.1
21 14.07 В 2 10 км мгла {туман} 8/8 600 м
[Sc]
+26.5 +24.4 88 +37 +37 очень
душно
1005.7 1004.0
00 15.07 В 1 8000 м мгла {туман} 10/5 600 м
[Sc As trans]
+26.9 +24.9 89 +39 +40 очень
душно
1006.8 1005.1 +25.5 8
03 15.07 ЮЗ 2 9000 м мгла {туман} 10/4 600 м
[Sc As trans]
+28.5 +24.3 78 +40 +45 очень
душно
1006.7 1005.0
06 15.07 З 2 8000 м мгла {туман} 10/4 600 м
[Sc As trans]
+29.9 +24.6 73 +42 +46 опасность
перегрева
1005.8 1004.1
09 15.07 Ю 2 10 км слаб. дождь {туман} 10/4 600 м
[Sc As trans]
+28.4 +23.4 74 +38 +39 очень
душно
1004.8 1003.1 0.1
12 15.07 ЮЗ 2 10 км слаб. дождь {туман} 10/4 600 м
[Sc As trans]
+28.5 +25.4 83 +42 +42 опасность
перегрева
1005.8 1004.1 +29.9 0.1
15 15.07 СЗ 1 10 км в посл. час дождь {туман} 9/4 600 м
[Sc diur, vesp Ac As]
+28.4 +23.7 76 +39 +39 очень
душно
1006.1 1004.4
18 15.07 З 3 10 км слаб. дождь {туман} 10/4 600 м
[Sc As trans]
+26.8 +25.6 93 +39 +39 очень
душно
1004.8 1003.1 0.2
21 15.07 ЮЗ 3 10 км слаб. дождь {туман} 10/4 600 м
[Sc As trans]
+27.3 +24.9 87 +39 +39 очень
душно
1004.0 1002.3 10
00 16.07 СЗ 3 11 км слаб. дождь {туман} 10/4 600 м
[Sc As trans]
+27.8 +24.1 80 +39 +40 очень
душно
1004.7 1003.0 +25.0 10
03 16.07 З 4 10 км сильн. морось {ливн. осадки, дождь} 10/1 600 м
[Sc As trans]
+29.4 +24.2 74 +41 +46 опасность
перегрева
1003.7 1002.0 0.0
06 16.07 ЮЗ 2 10 км мгла {дождь} 10/1 600 м
[Sc As trans]
+29.5 +23.6 71 +40 +46 очень
душно
1002.8 1001.1 0.0
09 16.07 З 5 10 км мгла {туман} 10/1 600 м
[Sc As trans]
+28.7 +25.0 80 +41 +42 опасность
перегрева
1002.0 1000.3
12 16.07 ЮЗ 5 8000 м слаб. ливневой дождь {туман} 10/8 540 м
[St As op]
+28.5 +25.4 83 +42 +42 опасность
перегрева
1002.3 1000.6 +30.0 0.0
15 16.07 З 4 8000 м в посл. час ливневой дождь 10/4 540 м
[Sc As trans]
+26.6 +24.1 86 +37 +37 очень
душно
1002.1 1000.4 14
18 16.07 З 7 8000 м в посл. час дождь {ливн. осадки} 10/8 540 м
[Sc As trans]
+26.9 +24.6 87 +38 +38 очень
душно
1001.4 999.7 15
21 16.07 З 4 8000 м слаб. дождь {туман} 10/6 540 м
[Sc As op]
+26.7 +24.0 85 +37 +37 очень
душно
1000.9 999.2 0.5
00 17.07 Ю 6 8000 м в посл. час дождь 10/5 540 м
[Sc As op]
+27.0 +25.3 90 +39 +39 очень
душно
1001.6 999.9 +24.9 16
03 17.07 ЮЗ 4 11 км в посл. час ливневой дождь {туман} 10/5 600 м
[Sc diur, vesp Ac As]
+28.0 +24.6 82 +40 +42 очень
душно
1000.8 999.1 2
06 17.07 ЮЗ 5 10 км слаб. дождь 10/5 600 м
[Sc Ac As]
+27.7 +24.5 83 +39 +40 очень
душно
1001.8 1000.1 5
09 17.07 Ю 5 11 км мгла {туман} 10/5 600 м
[Sc diur, vesp Ac As]
+27.9 +24.3 81 +39 +39 очень
душно
1001.1 999.4
12 17.07 ЮЗ 6 10 км мгла {туман} 10/5 600 м
[Sc diur, vesp Ac As]
+28.1 +24.5 81 +40 +40 очень
душно
1002.5 1000.8 +28.9
15 17.07 ЮЗ 5 10 км мгла {туман} 9/4 600 м
[Sc diur, vesp Ac As]
+27.3 +24.4 84 +38 +38 очень
душно
1003.3 1001.6
18 17.07 ЮЗ 5 9000 м в посл. час ливневой дождь 10/5 600 м
[Sc Ac As]
+27.1 +25.1 89 +39 +39 очень
душно
1002.6 1000.9 9
21 17.07 ЮЗ 5 6000 м дождь {туман} 10/6 600 м
[Sc As op]
+26.9 +25.4 92 +39 +39 очень
душно
1002.7 1001.0 0.5
00 18.07 ЮЗ 5 10 км в посл. час дождь {туман} 10/5 600 м
[Sc Ac As]
+26.7 +25.0 90 +38 +39 очень
душно
1003.6 1001.9 +25.3 22
03 18.07 ЮЗ 6
{8}
11 км в посл. час дождь {туман} 10/5 600 м
[Sc As trans]
+29.1 +25.3 80 +42 +44 опасность
перегрева
1005.0 1003.3 0.5
06 18.07 ЮЗ 7
{9}
11 км в посл. час дождь {туман} 10/5 600 м
[Sc As trans]
+28.3 +25.1 83 +41 +42 опасность
перегрева
1004.1 1002.4 1
09 18.07 ЮЗ 4 11 км мгла {туман} 9/4 600 м
[Cu med, cong Ac As Ci fib]
+28.9 +25.1 80 +42 +42 опасность
перегрева
1003.9 1002.2
12 18.07 ЮЗ 6 10 км в посл. час дождь {туман} 9/4 600 м
[Sc Ac As]
+27.5 +24.3 83 +39 +39 очень
душно
1005.9 1004.2 +30.5 9
15 18.07 ЮЗ 3 10 км мгла {туман} 9/4 600 м
[Sc Ac As]
+27.5 +24.8 85 +39 +39 очень
душно
1007.1 1005.4
18 18.07 ЮЗ 4 10 км мгла {туман} 9/4 600 м
[Sc diur, vesp Ac trans]
+27.4 +24.9 86 +39 +39 очень
душно
1006.4 1004.7
21 18.07 ЮЗ 3 10 км в посл. час дождь {туман} 9/4 600 м
[Sc Ac As]
+26.3 +24.7 91 +37 +37 очень
душно
1006.6 1004.9 5
00 19.07 ЮЗ 1 10 км в посл. час дождь {туман} 9/4 600 м
[Sc Ac As]
+27.2 +24.8 87 +39 +41 очень
душно
1007.6 1005.9 +25.5 18
03 19.07 Ю 4 10 км слаб. ливневой дождь {гроза, туман} 8/4 600 м
[Sc Ac As]
+28.0 +25.6 87 +41 +46 опасность
перегрева
1007.5 1005.8 1
06 19.07 З 6 10 км мгла {гроза} 3/3 600 м
[Cu med, cong Ac As Ci]
+31.2 +24.8 69 +44 +49 опасность
перегрева
1006.9 1005.2 1
09 19.07 ЮЗ 4 10 км мгла {туман} 8/3 540 м
[Cb cap Ac As Ci fib]
+30.3 +24.6 72 +43 +44 опасность
перегрева
1006.6 1004.9
12 19.07 З 5 10 км мгла {туман} 8/1 600 м
[Sc Ac As Cs]
+29.7 +25.4 78 +44 +44 опасность
перегрева
1008.7 1007.0 +32.3
15 19.07 ЮЗ 3 10 км в посл. час ливневой дождь {туман} 5/1 600 м
[Sc Ac As]
+29.0 +25.7 82 +43 +43 опасность
перегрева
1009.9 1008.2 1
18 19.07 Ю 4 10 км мгла {туман} 8/1 600 м
[Sc Cs]
+28.3 +25.4 84 +41 +41 опасность
перегрева
1008.8 1007.1 1
21 19.07 С 2 10 км мгла {туман} 8/8 600 м
[Cu Sc]
+26.9 +24.6 87 +38 +38 очень
душно
1008.8 1007.1
00 20.07 СВ 1 8000 м осадки на расстоянии {туман} 8/5 540 м
[Cu med, cong Ac As Ci]
+28.9 +25.0 80 +42 +45 опасность
перегрева
1010.0 1008.3 +25.9 2
03 20.07 З 2 8000 м мгла {туман} 6/6 600 м
[Cu Sc]
+31.0 +24.8 70 +44 +53 опасность
перегрева
1010.2 1008.5
06 20.07 З 3 10 км мгла {туман} 8/1 600 м
[Cu med, cong Cs]
+32.1 +24.6 65 +45 +56 опасность
перегрева
1008.1 1006.4
09 20.07 З 4 10 км мгла {туман} 9/1 600 м
[Cu med, cong Ac As Cs]
+31.1 +25.6 73 +46 +47 опасность
перегрева
1007.5 1005.8
12 20.07 З 1 10 км мгла {туман} 6/1 600 м
[Sc Cs]
+29.9 +25.7 78 +44 +44 опасность
перегрева
1008.9 1007.2 +32.8
15 20.07 Ю 3 10 км мгла {туман} 6/3 600 м
[Cu med, cong Cs]
+29.6 +26.1 82 +45 +45 опасность
перегрева
1010.6 1008.9
18 20.07 З 2 10 км мгла {туман} 9/1 600 м
[St Cs]
+28.5 +26.2 87 +43 +43 опасность
перегрева
1008.4 1006.7
21 20.07 С 2 10 км мгла {туман} 9/1 600 м
[Sc Cs]
+27.6 +25.6 89 +41 +41 опасность
перегрева
1008.4 1006.7
00 21.07 В 1 8000 м мгла {туман} 10/1 600 м
[Sc As op]
+28.0 +25.4 86 +41 +42 опасность
перегрева
1009.2 1007.5 +26.5
03 21.07 С 2 11 км мгла {туман} 9/4 600 м
[Sc diur, vesp Ac und]
+31.2 +25.6 72 +46 +51 опасность
перегрева
1009.1 1007.4

 

Местоположение метеостанции Манила (Филиппины): широта 14.58 долгота 120.98 высота над уровнем моря 13 м.

В архиве по умолчанию представлена погода в Маниле за последнюю неделю. Архивные данные за месяц целиком и за предыдущие месяцы, начиная с января 2011 года, Вы можете получить, выбрав интересующий диапазон дат из раскрывающегося списка и нажав кнопку "Ввод!".


*Определитесь, кто Вы:
робот инопланетянин человек

Внимание! Время в таблицах - всемирное. Для получения местного времени необходимо прибавить поправку, которая равна 8 ч.

Смотрите также архив погоды в соседних городах и на ближайших метеорологических станциях:

Погода в Научном саду (Филиппины) (6 км)
Погода в Аэропорту Ninoy Aquino (Филиппины) (7 км)
Погода в Сангли Пойнт (Филиппины) (12 км)
Погода в Танае (Филиппины) (41 км)
Погода на Амбулонге (Филиппины) (56 км)
Погода в Инфанте (Филиппины) (75 км)
Погода на Базе ВВС Clark (Филиппины) (80 км)
Погода в Куби Пойнт (Филиппины) (81 км)
Погода в Тайябасе (Филиппины) (89 км)
Погода в Кабанатуане (Филиппины) (100 км)

Пояснения к столбцам:

Ветер - указаны скорость ветра в м/с - средняя за 10 мин, порывы в срок и между сроками (в фигурных скобках) и направление, откуда дует ветер: С - северный, СВ - северо-восточный, В - восточный, ЮВ - юго-восточный, Ю - южный, ЮЗ - юго-западный, З - западный, СЗ - северо-западный.
Видимость - горизонтальная дальность видимости в метрах или километрах. При видимости от 1 до 10 км при отсутствии осадков обычно наблюдается дымка, при ухудшении видимости до 1 км и менее - туман. В сухую погоду видимость может ухудшаться дымом, пылью или мглою.
Явления - указаны атмосферные явления, наблюдавшиеся в срок или в последний час перед сроком; фигурными скобками обозначены явления, наблюдавшиеся между сроками (за 1-3 часа до срока); квадратными скобками обозначены град или гололедные отложения с указанием их диаметра в мм.
Облачность - указаны через наклонную черту общая и нижняя облачность в баллах и высота нижней границы облаков в метрах; квадратными скобками обозначены формы облаков: Ci - перистые, Cs - перисто-слоистые, Cc - перисто-кучевые, Ac - высококучевые, As - высокослоистые, Sc - слоисто-кучевые, Ns - слоисто-дождевые, Cu - кучевые, Cb - кучево-дождевые. Подробнее классификацию облаков см. в Атласе облаков (PDF).
T - Температура воздуха - температура, измеренная на высоте 2 м над землей.
Td - Температура точки росы - температура, при понижении до которой содержащийся в воздухе водяной пар достигнет насыщения.
f - Относительная влажность воздуха - влажноcть воздуха, измеренная на высоте 2 м над землей.
Te - Эффективная температура - температура, которую ощущает одетый по сезону человек в тени. Характеристика душности погоды. При расчете учитывается влияние влажности воздуха и скорости ветра на теплоощущения человека.
Tes - Эффективная температура на солнце - температура, которую ощущает человек, с поправкой на солнечный нагрев. Характеристика знойности погоды. Зависит от высоты солнца над горизонтом, облачности и скорости ветра. Ночью, в пасмурную погоду, а также при ветре 12 м/с и более поправка равна нулю.
P - Атмосферное давление - приведенное к уровню моря атмосферное давление.
Po - Атмосферное давление - измеренное на уровне метеостанции атмосферное давление.
Tmin - Минимальная температура - минимум температуры воздуха на высоте 2 м над землей.
Tmax - Максимальная температура - максимум температуры воздуха на высоте 2 м над землей.
R - Количество осадков - Количество выпавших осадков за период времени, мм. При наведении курсора мыши на число - период времени, за который выпало указанное количество осадков.
R24 - Количество осадков - Количество выпавших осадков за 24 часа, мм.
S - Снежный покров - Высота снежного покрова, см. При наведении курсора мыши на число - состояние снежного покрова и степень покрытия местности в баллах.